Time,TemperatureF,DewpointF,PressureIn,WindDirection,WindDirectionDegrees,WindSpeedMPH,WindSpeedGustMPH,Humidity,HourlyPrecipIn,Conditions,Clouds,dailyrainin,SoftwareType,DateUTC
2013-07-05 00:01:00,76.0,67.0,-100.00,SSW,210,4.0,7.0,73,-99.99,,,-99.99,,2013-07-05 04:01:00,
2013-07-05 00:12:00,76.0,67.0,-100.00,NW,305,1.0,6.0,73,-99.99,,,-99.99,,2013-07-05 04:12:00,
2013-07-05 00:33:00,76.0,67.0,-100.00,WSW,240,3.0,10.0,74,-99.99,,,-99.99,,2013-07-05 04:33:00,
2013-07-05 00:53:00,75.0,67.0,-100.00,WSW,240,3.0,8.0,75,-99.99,,,-99.99,,2013-07-05 04:53:00,
2013-07-05 01:01:00,75.0,67.0,-100.00,WSW,240,3.0,8.0,75,-99.99,,,-99.99,,2013-07-05 05:01:00,
2013-07-05 01:12:00,75.0,67.0,-100.00,SW,235,2.0,9.0,76,-99.99,,,-99.99,,2013-07-05 05:12:00,
2013-07-05 01:33:00,74.0,67.0,-100.00,WNW,285,1.0,6.0,77,-99.99,,,-99.99,,2013-07-05 05:33:00,
2013-07-05 01:52:00,74.0,67.0,-100.00,SSW,205,2.0,8.0,79,-99.99,,,-99.99,,2013-07-05 05:52:00,
2013-07-05 02:02:00,74.0,67.0,-100.00,SSW,205,2.0,8.0,79,-99.99,,,-99.99,,2013-07-05 06:02:00,
2013-07-05 02:13:00,74.0,67.0,-100.00,SW,230,5.0,10.0,79,-99.99,,,-99.99,,2013-07-05 06:13:00,
2013-07-05 02:34:00,74.0,67.0,-100.00,SW,230,4.0,10.0,79,-99.99,,,-99.99,,2013-07-05 06:34:00,
2013-07-05 03:02:00,74.0,67.0,-100.00,NW,315,2.0,11.0,81,-99.99,,,-99.99,,2013-07-05 07:02:00,
2013-07-05 03:12:00,73.0,67.0,-100.00,SW,235,2.0,6.0,82,-99.99,,,-99.99,,2013-07-05 07:12:00,
2013-07-05 03:34:00,73.0,68.0,-100.00,WNW,300,3.0,9.0,83,-99.99,,,-99.99,,2013-07-05 07:34:00,
2013-07-05 03:43:00,73.0,68.0,-100.00,SW,235,3.0,9.0,84,-99.99,,,-99.99,,2013-07-05 07:43:00,
2013-07-05 04:03:00,72.0,67.0,-100.00,WNW,290,2.0,9.0,84,-99.99,,,-99.99,,2013-07-05 08:03:00,
2013-07-05 04:23:00,72.0,67.0,-100.00,WSW,250,2.0,6.0,84,-99.99,,,-99.99,,2013-07-05 08:23:00,
2013-07-05 04:33:00,72.0,67.0,-100.00,WNW,295,2.0,7.0,85,-99.99,,,-99.99,,2013-07-05 08:33:00,
2013-07-05 05:09:00,72.0,67.0,-100.00,WSW,240,3.0,8.0,86,-99.99,,,-99.99,,2013-07-05 09:09:00,
2013-07-05 05:37:00,72.0,68.0,-100.00,West,270,3.0,7.0,86,-99.99,,,-99.99,,2013-07-05 09:37:00,
2013-07-05 06:09:00,72.0,68.0,-100.00,WNW,300,1.0,5.0,86,-99.99,,,-99.99,,2013-07-05 10:09:00,
2013-07-05 06:28:00,72.0,68.0,-100.00,WNW,300,1.0,6.0,86,-99.99,,,-99.99,,2013-07-05 10:28:00,
2013-07-05 06:38:00,72.0,68.0,-100.00,WNW,300,2.0,7.0,86,-99.99,,,-99.99,,2013-07-05 10:38:00,
2013-07-05 06:56:00,72.0,68.0,-100.00,WSW,250,2.0,6.0,86,-99.99,,,-99.99,,2013-07-05 10:56:00,
2013-07-05 07:18:00,72.0,68.0,-100.00,West,265,4.0,8.0,86,-99.99,,,-99.99,,2013-07-05 11:18:00,
2013-07-05 07:38:00,72.0,68.0,-100.00,WSW,240,4.0,9.0,86,-99.99,,,-99.99,,2013-07-05 11:38:00,
2013-07-05 08:11:00,73.0,68.0,-100.00,WNW,285,3.0,9.0,86,-99.99,,,-99.99,,2013-07-05 12:11:00,
2013-07-05 08:17:00,73.0,69.0,-100.00,West,275,2.0,7.0,86,-99.99,,,-99.99,,2013-07-05 12:17:00,
2013-07-05 08:26:00,73.0,69.0,-100.00,West,275,2.0,7.0,86,-99.99,,,-99.99,,2013-07-05 12:26:00,
2013-07-05 08:37:00,74.0,69.0,-100.00,WSW,250,2.0,7.0,86,-99.99,,,-99.99,,2013-07-05 12:37:00,
2013-07-05 09:07:00,76.0,69.0,-100.00,SW,220,3.0,7.0,79,-99.99,,,-99.99,,2013-07-05 13:07:00,
2013-07-05 09:14:00,78.0,69.0,-100.00,WSW,250,5.0,10.0,74,-99.99,,,-99.99,,2013-07-05 13:14:00,
2013-07-05 09:39:00,79.0,68.0,-100.00,West,265,3.0,10.0,70,-99.99,,,-99.99,,2013-07-05 13:39:00,
2013-07-05 10:09:00,80.0,67.0,-100.00,West,280,4.0,9.0,65,-99.99,,,-99.99,,2013-07-05 14:09:00,
2013-07-05 10:28:00,81.0,67.0,-100.00,WSW,255,2.0,8.0,62,-99.99,,,-99.99,,2013-07-05 14:28:00,
2013-07-05 10:39:00,83.0,68.0,-100.00,SW,230,7.0,9.0,61,-99.99,,,-99.99,,2013-07-05 14:39:00,
2013-07-05 10:55:00,83.0,67.0,-100.00,SW,225,7.0,10.0,59,-99.99,,,-99.99,,2013-07-05 14:55:00,
2013-07-05 11:08:00,83.0,67.0,-100.00,SW,230,7.0,11.0,59,-99.99,,,-99.99,,2013-07-05 15:08:00,
2013-07-05 11:25:00,83.0,67.0,-100.00,SW,225,3.0,11.0,58,-99.99,,,-99.99,,2013-07-05 15:25:00,
2013-07-05 11:34:00,84.0,67.0,-100.00,WSW,245,4.0,11.0,57,-99.99,,,-99.99,,2013-07-05 15:34:00,
2013-07-05 11:53:00,85.0,67.0,-100.00,WSW,245,5.0,11.0,55,-99.99,,,-99.99,,2013-07-05 15:53:00,
2013-07-05 12:02:00,86.0,67.0,-100.00,WSW,250,4.0,13.0,52,-99.99,,,-99.99,,2013-07-05 16:02:00,
2013-07-05 12:11:00,86.0,67.0,-100.00,WSW,250,4.0,13.0,52,-99.99,,,-99.99,,2013-07-05 16:11:00,
2013-07-05 12:22:00,86.0,66.0,-100.00,WSW,245,5.0,11.0,52,-99.99,,,-99.99,,2013-07-05 16:22:00,
2013-07-05 12:33:00,86.0,66.0,-100.00,WSW,245,5.0,12.0,52,-99.99,,,-99.99,,2013-07-05 16:33:00,
2013-07-05 12:53:00,87.0,66.0,-100.00,SSW,210,6.0,14.0,49,-99.99,,,-99.99,,2013-07-05 16:53:00,
2013-07-05 13:02:00,88.0,65.0,-100.00,WSW,245,5.0,15.0,47,-99.99,,,-99.99,,2013-07-05 17:02:00,
2013-07-05 13:12:00,87.0,65.0,-100.00,WSW,240,5.0,14.0,47,-99.99,,,-99.99,,2013-07-05 17:12:00,
2013-07-05 13:22:00,87.0,65.0,-100.00,WSW,240,5.0,14.0,47,-99.99,,,-99.99,,2013-07-05 17:22:00,
2013-07-05 14:02:00,88.0,65.0,-100.00,SW,235,8.0,15.0,46,-99.99,,,-99.99,,2013-07-05 18:02:00,
2013-07-05 14:22:00,89.0,64.0,-100.00,WSW,240,8.0,15.0,44,-99.99,,,-99.99,,2013-07-05 18:22:00,
2013-07-05 14:33:00,88.0,64.0,-100.00,SW,220,2.0,14.0,45,-99.99,,,-99.99,,2013-07-05 18:33:00,
2013-07-05 14:43:00,89.0,65.0,-100.00,WSW,250,5.0,11.0,46,-99.99,,,-99.99,,2013-07-05 18:43:00,
2013-07-05 14:53:00,89.0,65.0,-100.00,WSW,250,5.0,11.0,46,-99.99,,,-99.99,,2013-07-05 18:53:00,
2013-07-05 15:02:00,88.0,65.0,-100.00,SW,220,6.0,12.0,46,-99.99,,,-99.99,,2013-07-05 19:02:00,
2013-07-05 15:22:00,89.0,66.0,-100.00,SW,220,6.0,13.0,46,-99.99,,,-99.99,,2013-07-05 19:22:00,
2013-07-05 15:34:00,89.0,63.0,-100.00,WSW,250,10.0,16.0,43,-99.99,,,-99.99,,2013-07-05 19:34:00,
2013-07-05 15:53:00,89.0,64.0,-100.00,WSW,255,5.0,10.0,44,-99.99,,,-99.99,,2013-07-05 19:53:00,
2013-07-05 16:02:00,89.0,64.0,-100.00,SW,235,6.0,14.0,44,-99.99,,,-99.99,,2013-07-05 20:02:00,
2013-07-05 16:11:00,89.0,64.0,-100.00,SSW,200,6.0,13.0,43,-99.99,,,-99.99,,2013-07-05 20:11:00,
2013-07-05 16:22:00,89.0,64.0,-100.00,SSW,200,6.0,13.0,43,-99.99,,,-99.99,,2013-07-05 20:22:00,
2013-07-05 16:33:00,90.0,65.0,-100.00,SW,235,5.0,11.0,43,-99.99,,,-99.99,,2013-07-05 20:33:00,
2013-07-05 16:43:00,89.0,64.0,-100.00,WNW,295,4.0,12.0,43,-99.99,,,-99.99,,2013-07-05 20:43:00,
2013-07-05 17:02:00,88.0,63.0,-100.00,West,270,4.0,12.0,44,-99.99,,,-99.99,,2013-07-05 21:02:00,
2013-07-05 17:12:00,88.0,64.0,-100.00,SSW,210,5.0,14.0,46,-99.99,,,-99.99,,2013-07-05 21:12:00,
2013-07-05 17:22:00,88.0,64.0,-100.00,SSW,210,5.0,14.0,46,-99.99,,,-99.99,,2013-07-05 21:22:00,
2013-07-05 17:34:00,88.0,64.0,-100.00,SW,225,5.0,11.0,46,-99.99,,,-99.99,,2013-07-05 21:34:00,
2013-07-05 17:53:00,87.0,65.0,-100.00,SW,235,5.0,11.0,48,-99.99,,,-99.99,,2013-07-05 21:53:00,
2013-07-05 18:02:00,87.0,65.0,-100.00,SW,235,5.0,11.0,48,-99.99,,,-99.99,,2013-07-05 22:02:00,
2013-07-05 18:12:00,86.0,64.0,-100.00,South,190,6.0,15.0,47,-99.99,,,-99.99,,2013-07-05 22:12:00,
2013-07-05 18:34:00,87.0,64.0,-100.00,SW,220,6.0,11.0,47,-99.99,,,-99.99,,2013-07-05 22:34:00,
2013-07-05 19:02:00,87.0,64.0,-100.00,SSW,200,8.0,13.0,46,-99.99,,,-99.99,,2013-07-05 23:02:00,
2013-07-05 19:11:00,87.0,65.0,-100.00,WSW,250,3.0,10.0,47,-99.99,,,-99.99,,2013-07-05 23:11:00,
2013-07-05 19:32:00,87.0,65.0,-100.00,SW,225,6.0,12.0,47,-99.99,,,-99.99,,2013-07-05 23:32:00,
2013-07-05 20:02:00,85.0,65.0,-100.00,WSW,240,6.0,9.0,51,-99.99,,,-99.99,,2013-07-06 00:02:00,
2013-07-05 20:22:00,83.0,65.0,-100.00,WSW,250,3.0,9.0,55,-99.99,,,-99.99,,2013-07-06 00:22:00,
2013-07-05 20:33:00,82.0,66.0,-100.00,SSW,205,3.0,5.0,58,-99.99,,,-99.99,,2013-07-06 00:33:00,
2013-07-05 21:02:00,81.0,67.0,-100.00,WSW,240,5.0,9.0,62,-99.99,,,-99.99,,2013-07-06 01:02:00,
2013-07-05 21:22:00,81.0,67.0,-100.00,West,260,3.0,9.0,64,-99.99,,,-99.99,,2013-07-06 01:22:00,
2013-07-05 21:53:00,80.0,68.0,-100.00,SW,230,4.0,10.0,67,-99.99,,,-99.99,,2013-07-06 01:53:00,
2013-07-05 22:02:00,79.0,68.0,-100.00,West,270,2.0,9.0,69,-99.99,,,-99.99,,2013-07-06 02:02:00,
2013-07-05 22:12:00,79.0,68.0,-100.00,WNW,300,2.0,8.0,70,-99.99,,,-99.99,,2013-07-06 02:12:00,
2013-07-05 22:22:00,79.0,68.0,-100.00,WNW,300,2.0,8.0,70,-99.99,,,-99.99,,2013-07-06 02:22:00,
2013-07-05 22:34:00,78.0,68.0,-100.00,WSW,255,3.0,9.0,71,-99.99,,,-99.99,,2013-07-06 02:34:00,
2013-07-05 22:53:00,78.0,68.0,-100.00,WSW,245,3.0,11.0,73,-99.99,,,-99.99,,2013-07-06 02:53:00,
2013-07-05 23:02:00,78.0,68.0,-100.00,WSW,245,3.0,11.0,73,-99.99,,,-99.99,,2013-07-06 03:02:00,
2013-07-05 23:22:00,77.0,68.0,-100.00,WSW,240,4.0,9.0,74,-99.99,,,-99.99,,2013-07-06 03:22:00,
2013-07-05 23:34:00,77.0,68.0,-100.00,West,280,3.0,8.0,74,-99.99,,,-99.99,,2013-07-06 03:34:00,
2013-07-05 23:53:00,77.0,68.0,-100.00,NW,305,2.0,8.0,75,-99.99,,,-99.99,,2013-07-06 03:53:00,